User: anonymous
Location: Plymouth
(43.7570°N, 71.6890°W)
Time: 07:21:13
(UTC-04:00)
Language:

COSMOS 2406 - Orbit

View from above orbital plane
View from above orbital plane
View from above satellite
View from above satellite

Ground track
Ground track

The orbit data is extracted from the following two-line orbital elements,

1 28352U 04021A   14292.66076426  .00000369  00000-0  22962-3 0  4236
2 28352 071.0033 352.7714 0012042 132.4358 034.0149 14.11354414533763
Epoch (UTC): 19 October 2014 15:51:30
Eccentricity: 0.0012042
inclination: 71.0033°
perigee height: 846 km
apogee height: 863 km
right ascension of ascending node: 352.7714°
argument of perigee: 132.4358°
revolutions per day: 14.11354414
mean anomaly at epoch: 34.0149°
orbit number at epoch: 53376

The dashed part of the orbit path shows where the satellite is in the earth's shadow,  

DLR